Location: Unspecified
(0.0000°N, 0.0000°E)
Time: 13:11:31
(UTC+00:00)

Hubble Space Telescope - Pass Details

Date: 17 October 2017
Orbit: 537 x 541 km, 28.5° (Epoch: 16 October)

Event Time Altitude Azimuth Distance (km) Brightness Sun altitude
Rises 18:26:23 0° 274° (W) 2,670 6.1 -10.1°
Reaches altitude 10° 18:29:35 10° 300° (WNW) 1,777 4.2 -10.9°
Maximum altitude 18:31:46 14° 332° (NNW) 1,539 3.3 -11.5°
Drops below altitude 10° 18:33:57 10° 5° (N) 1,774 3.3 -12.0°
Enters shadow 18:36:02 - 24° (NNE) 2,311 3.7 -12.5°
